Regional Weather Roundup
Issued by NWS

Home | Current Version | Previous Version | Text Only | Print | Product List | Glossary On
Versions: 1 2 3 4 5 6 7 8 9 10 11 12 13 14 15 16 17 18 19 20 21 22 23 24 25 26 27 28 29 30 31 32 33 34 35 36 37 38 39 40 41 42 43 44 45 46 47 48 49 50
000
ASUS45 KSLC 012310
RWRUT

UTAH REGIONAL WEATHER ROUNDUP
NATIONAL WEATHER SERVICE SALT LAKE CITY UT
400 PM MST SUN MAR 01 2015

UTZ001>011-023>025-020000-

NORTHERN UTAH

CITY           SKY/WX    TMP DP  RH WIND       PRES   REMARKS
BRIGHAM CITY   MOSUNNY   47  19  32 CALM      30.04S
HILL AFB       MOSUNNY   45  23  42 SW6       30.01F
LOGAN          CLOUDY    44  19  36 VRB3      30.03F
OGDEN          CLOUDY    45  24  43 W8        30.01F
PROVO AIRPORT  CLOUDY    41  28  60 VRB5      30.03S
SALT LAKE CITY PTSUNNY   46  27  47 VRB5      30.01F
VERNAL         PTSUNNY   41  24  51 CALM      30.06F
WENDOVER       SUNNY     45  18  33 SE12      30.03F
HEBER CITY     PTSUNNY   41  27  56 CALM      29.99F
WEST JORDAN    SUNNY     45  32  61 NW8       30.02F

$$

UTZ012>022-026-027-020000-

SOUTHERN/CENTRAL UTAH

CITY           SKY/WX    TMP DP  RH WIND       PRES   REMARKS
BLANDING       CLOUDY    33  33 100 N3        30.13S
BRYCE CANYON   SNOW      29  27  92 SE8       30.01R VSB 1/2 WCI  21
CEDAR CITY     CLOUDY    36  30  79 SW5       29.99R WCI  32
DELTA          PTSUNNY   43  30  59 CALM      30.01R
HANKSVILLE     CLOUDY    41  32  70 CALM      30.09S
MILFORD        CLOUDY    41  30  65 N12       29.99R
MOAB/CYNLANDS  CLOUDY    44  32  62 S3        30.04S
PRICE          CLOUDY    42  25  50 S10       30.03S
ST GEORGE      CLOUDY    48  37  66 E14       30.02R
KANAB            N/A     36  36 100 N5        30.06F WCI  32

$$

REGIONAL REPORTS     COLORADO/ARIZONA

CITY           SKY/WX    TMP DP  RH WIND       PRES   REMARKS
CRAIG, CO        N/A     35  24  64 E5        30.07F WCI  31
GRAND JUNCTION CLOUDY    44  30  57 SE7       30.05S
RIFLE          CLOUDY    45  24  43 CALM      30.05F
MONTROSE       CLOUDY    38  29  70 CALM      30.09R
CORTEZ         CLOUDY    42  35  76 CALM      30.05S
PAGE, AZ       LGT RAIN  39  33  79 CALM      30.04S
GRAND CANYON   LGT SNOW  33  31  92 E5        30.00S VSB 3/4 WCI  29
KINGMAN        LGT RAIN  44  39  82 E12       29.97S
FLAGSTAFF      CLOUDY    37  35  92 S8        30.00S WCI  31

$$

REGIONAL REPORTS    NEVADA/IDAHO/WYOMING

CITY           SKY/WX    TMP DP  RH WIND       PRES   REMARKS
LAS VEGAS, NV  CLOUDY    54  36  50 SE9       29.93R
ELY            PTSUNNY   41  24  51 NE10      29.97S
ELKO           CLOUDY    44  20  38 NE6       29.96F
POCATELLO, ID  MOSUNNY   44   8  23 N7        30.06F
BURLEY         SUNNY     44   6  21 NE8       30.04F
EVANSTON, WY   CLOUDY    29  18  63 E9        30.03S WCI  20
ROCK SPRINGS   MOSUNNY   29  16  58 S7        30.06F WCI  22
KEMMERER       PTSUNNY   30  14  51 E5        30.05R WCI  25

$$



USA.gov is the U.S. government's official web portal to all federal, state and local government web resources and services.